TimePDT,TemperatureF,Dew PointF,Humidity,Sea Level PressureIn,VisibilityMPH,Wind Direction,Wind SpeedMPH,Gust SpeedMPH,PrecipitationIn,Events,Conditions,WindDirDegrees,DateUTC
12:53 AM,45.0,39.0,80,30.06,10.0,NNW,3.5,-,N/A,,Overcast,330,2012-10-30 07:53:00
1:53 AM,46.0,39.9,79,30.05,10.0,Calm,Calm,-,N/A,,Overcast,0,2012-10-30 08:53:00
2:53 AM,44.1,39.0,82,30.04,10.0,Calm,Calm,-,N/A,,Scattered Clouds,0,2012-10-30 09:53:00
3:53 AM,42.1,37.0,82,30.03,10.0,Calm,Calm,-,N/A,,Clear,0,2012-10-30 10:53:00
4:53 AM,37.9,35.1,89,30.06,10.0,Calm,Calm,-,N/A,,Scattered Clouds,0,2012-10-30 11:53:00
5:53 AM,36.0,34.0,93,30.08,10.0,East,3.5,-,N/A,,Partly Cloudy,100,2012-10-30 12:53:00
6:00 AM,35.6,33.8,93,30.10,10.0,Calm,Calm,-,N/A,,Scattered Clouds,0,2012-10-30 13:00:00
6:53 AM,35.1,33.1,92,30.08,10.0,Calm,Calm,-,N/A,,Scattered Clouds,0,2012-10-30 13:53:00
7:53 AM,35.1,33.1,92,30.10,10.0,Calm,Calm,-,N/A,,Scattered Clouds,0,2012-10-30 14:53:00
8:53 AM,41.0,37.0,86,30.08,10.0,Calm,Calm,-,N/A,,Mostly Cloudy,0,2012-10-30 15:53:00
9:53 AM,50.0,39.0,66,30.06,10.0,Calm,Calm,-,N/A,,Mostly Cloudy,0,2012-10-30 16:53:00
10:53 AM,55.9,43.0,62,30.04,10.0,SSE,9.2,-,N/A,,Mostly Cloudy,160,2012-10-30 17:53:00
11:53 AM,60.1,41.0,49,30.00,10.0,SSE,13.8,20.7,N/A,,Mostly Cloudy,150,2012-10-30 18:53:00
12:53 PM,62.1,36.0,38,29.99,10.0,South,15.0,20.7,N/A,,Mostly Cloudy,170,2012-10-30 19:53:00
1:53 PM,64.9,32.0,29,29.95,10.0,South,23.0,28.8,N/A,,Mostly Cloudy,180,2012-10-30 20:53:00
2:53 PM,66.0,33.1,29,29.94,10.0,South,17.3,-,N/A,,Mostly Cloudy,180,2012-10-30 21:53:00
3:53 PM,64.4,33.8,32,29.93,10.0,South,16.1,21.9,N/A,,Mostly Cloudy,180,2012-10-30 22:53:00
4:53 PM,60.1,34.0,38,29.94,10.0,South,20.7,25.3,N/A,,Mostly Cloudy,190,2012-10-30 23:53:00
5:53 PM,57.9,35.1,42,29.94,10.0,South,16.1,-,N/A,,Mostly Cloudy,190,2012-10-31 00:53:00
6:53 PM,55.0,36.0,49,29.94,10.0,South,13.8,-,N/A,,Mostly Cloudy,170,2012-10-31 01:53:00
7:53 PM,55.0,33.1,43,29.95,7.0,South,13.8,-,N/A,,Mostly Cloudy,180,2012-10-31 02:53:00
8:53 PM,51.1,35.1,54,29.94,7.0,SE,8.1,-,N/A,,Mostly Cloudy,140,2012-10-31 03:53:00
9:53 PM,50.0,36.0,59,29.92,7.0,Calm,Calm,-,N/A,,Mostly Cloudy,0,2012-10-31 04:53:00
10:53 PM,51.1,33.1,50,29.89,10.0,South,11.5,-,N/A,,Clear,170,2012-10-31 05:53:00
11:53 PM,53.1,34.0,48,29.87,10.0,South,13.8,-,N/A,,Clear,180,2012-10-31 06:53:00